Location: Dammartin
(48.9032°N, 1.6195°E)
Time: 11:21:53
(UTC+00:00)

Cosmos 1655 Rocket - Pass Details

Date: 03 February 2023
Orbit: 970 x 1006 km, 83.0° (Epoch: 25 March)

Event Time Altitude Azimuth Distance (km) Brightness Sun altitude
Rises 17:24:35 0° 351° (N) 3,701 6.9 -5.5°
Reaches altitude 10° 17:27:08 10° 352° (N) 2,744 6.3 -5.9°
Maximum altitude 17:33:26 80° 81° (E) 994 4.0 -6.9°
Drops below altitude 10° 17:39:39 10° 168° (SSE) 2,709 6.4 -7.9°
Sets 17:42:08 0° 170° (S) 3,650 7.1 -8.3°
